PAKSAT-MM1

Last updated on Wed Sep 09 2026 00:03:04 GMT+0000 (Coordinated Universal Time)

1 59915U 24104A 26250.59729823 .00000134 00000+0 00000+0 0 9996 2 59915 0.0380 225.4097 0002069 306.4133 68.0761 1.00269064 8350
UTC large
Height (km)
Speed (km/s)
/
Latitude / Longitude
Inclination (degrees)
Orbital Period (minutes)
Azimuth
Elevation
Range (km)
Doppler Factor

Next 0 passes for location: London (51.5072 / 0.1276)

No passes found over London.
PAKSAT-MM1